SL-16 DEB, 22476

Orbit data source: Space-Track

SL-16 DEB, 22476 is space debris in LEO originally from a launch on Fri, 25 Dec 1992 UTC launched from the Tyuratam Missile And Space Complex (TTMTR). Debris objects in space refer to the collection of defunct objects orbiting the Earth. Examples of debris include non-operational satellites, rocket bodies, and fragments generated from explosions, collisions, or faulty payload assembly.

Loading next visibility...
Identifier
22476, 1992-093FR
Orbit
LEO
Country
Flag of CISCIS
Related business
Manufacturer
Unknown
Mission
Spacecraft
Bus & Motor
Unknown
Mass
Unknown
Launch date (UTC)
1992-12-25 (33 years ago)
Launch vehicle
Unknown
Launch site
Tyuratam Missile And Space Complex (TTMTR)
Object type
Payload
Rocket body
Debris
Shape & HBR
Unknown shape, 0.1 m
Radar Cross Section
Small (<0.1 m²)

Expand to show TLE details & history
Last TLE update: 7 hours ago

TLE from 7 hours ago
0 SL-16 DEB
1 22476U 92093FR  26133.14457397  .00000959  00000-0  12238-2 0  9990
2 22476  71.5495  44.6109 0461709  30.7181 332.0071 13.27983827598621
Epoch: 2026-05-13T03:28Z
TLE epoch observation values (Epoch: 2026-05-13T03:28:11.191Z)
Latitude
-0.00006°
Longitude
121.65544°
Altitude
853.339 km
Speed
7.574 km/s
True Right ascension
02h 58m 26s
True Declination
0° 00' 00"
Sunlit
Object was in daylight at epoch
Visualization orbit readout
Latitude
Unknown
Longitude
Unknown
Altitude
Unknown
Speed
Unknown
Apparent Right ascension
Unknown
Apparent Declination
Unknown
Sunlit
N/A
Visualization observer readout
Local Sidereal Time
18:40:49
Azimuth
Unknown
Elevation
Unknown
Doppler factor
Unknown
Orbital elements
Apogee altitude
1,500.02 km
Perigee altitude
804.643 km
Semi-major axis
7,530.468 km
Eccentricity
0.04617
Inclination
71.5495°
RAAN
44.6109°
Arg. of periapsis
30.7181°
True anomaly
329.39167°
Mean anomaly
332.0071°
Eccentric anomaly
330.71301°
Mean motion
3.32132 °/min
Orbital period
108.39 mins
BSTAR
0.0012238
Loading maneuver chart data...
Computing Atmospheric mass density...
Loading historical data...
Loading historical data...
Loading historical data...
Loading historical data...
Loading historical data...
Loading historical data...
Loading historical data...

Documentation

Showing up to 5 results
|